Location: Mountain Lakes
(44.1215°N, 71.9554°W)
Time: 03:58:54
(UTC+00:00)

Iridium 4 Rocket - Pass Details

Date: 08 September 2024
Orbit: 581 x 893 km, 86.9° (Epoch: 11 October)

Event Time Altitude Azimuth Distance (km) Brightness Sun altitude
Rises 23:33:58 0° 7° (N) 2,877 6.6 -5.0°
Reaches altitude 10° 23:36:27 10° 19° (NNE) 1,940 5.6 -5.5°
Maximum altitude 23:40:08 29° 80° (E) 1,083 3.8 -6.1°
Drops below altitude 10° 23:43:45 10° 142° (SE) 1,894 5.1 -6.8°
Sets 23:46:08 0° 153° (SSE) 2,795 6.0 -7.2°
